sat.trackr.live / text

‹ back to catalog

STARLINK-3210

NORAD 49755 · 2021-115AH

PAYLOAD ACTIVE UNKNOWN

§ Identity

Operator
Country
US
Launch date
2021-12-02
Launch site
AFETR
Launch vehicle
Mass (kg)
RCS (m²)

Purposes: comms

External: N2YO · Heavens-Above · Gunter

§ Orbital elements

Epoch: 2026-05-25T01:02:41.341056Z

Period
95.44 min
Inclination
53.2131°
Eccentricity
0.0001191
Mean motion
15.08834945 rev/d
Perigee alt
538.9 km
Apogee alt
540.6 km
Semi-major
6,917.9 km
B*
2.7095e-5
RAAN
166.4042°
Arg perigee
75.2923°
Mean anomaly
284.8201°
Rev number
24,706

§ Raw data

STARLINK-32101 49755U 21115AH  26145.04353404  .00000143  00000+0  27095-4 0  99952 49755  53.2131 166.4042 0001191  75.2923 284.8201 15.08834945247061

JSON: /api/v1/satellites/49755 · /tle

For live sub-satellite position, see the globe view (requires WebGL).

§ Visibility from observer

Set your observer location to see the next 7 days of passes ≥ 10°. The values pass through the URL so the page stays shareable.

No JS? Fill the form by hand. The geolocation button needs JavaScript.